Vorticity
5 12 17 14 10 8 8 7 5 5 6 6 6 6 5 4 4 3 5 4 6 5 2 8 6 8 7 9 11 11 7 6 4 7 8 8 13 19 16 9 3 8 1 9 9
10 3 3 5 7 8 8 6 6 5 5 5 5 6 7 7 7 6 3 3 3 5 14 12 6 6 7 8 5 9 4 3 9 11 8 11 9 13 13 14 9 13 6 -5 10
5 5 6 6 7 6 6 5 5 5 5 4 5 5 4 4 4 7 8 22 26 27 12 -1 2 7 8 9 2 3 -3 15 6 6 6 9 11 5 11 13 13 18 16 -0 7
7 8 7 7 8 9 8 8 8 8 8 8 8 7 6 7 11 6 -8 -8 -4 -23 -13 2 9 6 9 7 12 10 7 7 7 9 11 10 12 6 9 11 -14 13 25 22 -3
7 7 7 7 7 7 7 8 8 8 8 8 8 8 7 6 7 12 8 7 2 4 5 8 7 10 7 7 8 9 8 8 10 8 8 11 9 10 9 9 12 11 -6 12 3
4 3 4 4 4 5 7 8 8 9 10 10 10 10 10 2 15 17 15 12 12 16 20 12 13 20 8 2 4 1 5 7 6 11 8 4 7 8 11 7 12 3 9 13 10
4 4 5 5 8 9 10 11 11 10 10 10 10 10 8 12 10 13 12 9 7 9 11 18 11 0 12 22 22 11 9 7 5 6 1 14 6 4 14 16 11 16 6 10 9
6 7 9 8 7 8 8 9 9 9 9 8 8 7 7 9 9 19 24 18 11 9 14 8 7 9 13 12 3 7 6 6 19 17 9 1 -6 5 9 17 15 11 11 11 14
6 6 8 9 12 11 11 10 10 8 7 7 5 6 17 21 20 22 18 14 29 18 8 14 6 7 9 4 4 20 -8 3 11 11 4 12 2 6 14 7 16 11 3 4 8
9 10 8 8 7 8 8 9 10 9 7 6 16 40 26 4 -19 -40 -22 -1 8 22 20 3 6 5 8 7 -8 -10 6 -1 2 -19 20 22 8 11 4 1 15 14 21 -1 8
7 8 7 7 10 10 10 12 12 8 17 3 -17 4 9 11 4 2 7 17 17 10 12 14 5 -2 7 13 -14 18 29 18 14 10 13 8 11 20 12 15 8 4 6 13 7
7 9 8 8 9 13 16 20 17 5 10 5 8 6 8 21 13 17 19 20 13 8 25 -0 2 22 3 9 12 -0 -4 -17 -4 5 11 5 -5 5 6 6 21 -2 8 14 16
8 10 15 16 22 25 23 19 20 19 13 7 24 29 32 22 16 17 24 17 12 13 14 10 -7 29 -6 11 8 8 -2 4 2 -2 -1 14 22 18 26 -8 11 18 -0 8 25
9 16 16 10 18 17 25 23 17 29 26 7 59 34 14 20 42 22 48 39 13 19 24 4 29 -48 68 -3 5 -20 -7 -8 -4 8 -9 13 10 10 5 26 21 16 10 4 16
18 19 17 28 11 16 14 14 18 35 9 8 10 12 11 1 -8 17 2 43 14 -3 25 -2 37 22 -13 16 1 6 11 10 13 19 9 12 7 34 24 29 9 20 16 10 5
19 21 23 7 12 10 18 19 32 16 -1 30 14 -14 9 -13 33 32 -7 28 41 -3 14 21 1 20 24 3 -13 14 5 23 19 16 30 9 -26 47 20 -14 -0 8 11 15 18
19 21 7 9 12 21 8 10 40 0 -29 -0 8 -7 13 12 20 20 8 32 1 23 13 48 19 -13 2 7 17 13 18 18 26 15 -3 41 41 -49 -17 20 47 23 -1 12 15
15 3 13 7 20 6 8 12 21 -22 -4 -9 5 22 40 9 8 -22 42 30 15 17 0 26 33 46 17 5 -19 -3 -3 -39 8 9 19 24 13 -19 -8 4 10 14 11 29 25
8 16 12 14 12 9 18 19 0 11 -6 10 16 27 15 -4 22 5 34 22 1 86 80 43 14 -1 25 34 21 50 26 4 -37 -4 12 8 33 29 40 48 36 8 23 -17 38
8 21 22 10 9 9 5 16 20 1 -5 16 12 15 -6 10 16 11 33 -26 -10 1 46 17 22 19 22 10 28 -1 11 24 -2 16 -0 19 7 -30 -41 33 27 47 6 28 -13
11 6 23 6 8 10 18 8 7 4 23 10 14 5 -15 4 5 18 -0 22 -10 15 11 37 26 44 15 11 16 17 21 17 29 -58 11 6 12 70 42 21 22 31 54 40 13
7 8 8 10 10 22 -2 7 4 -7 12 6 11 3 1 9 8 36 -8 1 5 11 26 -4 16 39 7 22 8 20 23 -15 -15 38 29 -48 23 -23 -34 -22 -36 -11 12 40 36
10 9 17 -3 19 17 -4 10 5 11 10 4 1 3 3 7 27 -18 -13 39 -16 8 27 -3 -37 32 54 -5 22 38 2 16 -11 0 19 -22 43 38 48 24 9 4 -11 6 42
14 15 4 22 -3 15 7 7 -2 14 19 16 -0 11 3 5 6 -13 8 -18 6 42 6 12 -1 9 -7 -23 6 -0 37 41 12 11 -13 -41 -24 1 19 -33 14 11 -4 -7 58
14 5 14 -0 -14 12 8 18 11 13 18 -8 9 5 11 -1 12 7 5 8 5 7 -5 -5 12 12 0 8 25 19 -15 21 55 -6 17 33 15 14 28 16 -5 0 43 6 19
9 8 6 2 10 8 2 19 -8 6 7 6 12 6 10 3 2 11 9 9 4 2 5 17 -11 25 16 9 4 2 28 29 22 22 16 -42 -11 -21 5 -1 -8 24 29 13 4
10 13 9 6 2 31 -3 19 14 15 13 -5 8 11 8 12 16 6 5 3 6 10 8 6 14 -2 14 -2 1 57 -15 8 39 15 19 13 14 5 14 22 24 24 23 9 -1
Height
3140 3137 3134 3131 3129 3127 3125 3122 3119 3117 3114 3113 3111 3108 3106 3104 3104 3103 3104 3103 3101 3098 3099 3100 3099 3099 3098 3098 3098 3098 3095 3090 3092 3093 3095 3101 3103 3105 3107 3110 3114 3118 3121 3125 3128
3135 3132 3130 3127 3124 3122 3119 3117 3114 3111 3109 3108 3106 3103 3099 3097 3097 3098 3098 3096 3095 3093 3093 3093 3093 3093 3092 3093 3091 3091 3086 3088 3089 3091 3091 3094 3096 3098 3100 3101 3104 3108 3116 3119 3122
3130 3127 3125 3122 3120 3117 3114 3111 3109 3106 3104 3101 3097 3094 3094 3092 3091 3093 3090 3089 3088 3087 3087 3087 3087 3087 3086 3086 3085 3082 3079 3085 3084 3086 3087 3087 3088 3091 3092 3092 3096 3102 3108 3114 3117
3126 3124 3120 3117 3114 3112 3109 3105 3102 3099 3097 3094 3092 3088 3084 3082 3088 3088 3084 3084 3084 3083 3083 3082 3082 3081 3079 3078 3080 3075 3077 3079 3080 3081 3080 3080 3081 3081 3085 3090 3094 3098 3101 3106 3112
3122 3117 3114 3111 3109 3105 3102 3099 3095 3092 3088 3086 3082 3079 3074 3068 3082 3082 3077 3076 3075 3075 3075 3075 3073 3075 3072 3071 3072 3067 3071 3072 3074 3074 3073 3074 3072 3075 3075 3083 3087 3091 3096 3099 3103
3115 3111 3108 3104 3100 3097 3094 3090 3087 3083 3079 3076 3072 3068 3061 3052 3073 3075 3069 3064 3064 3065 3066 3066 3066 3068 3064 3064 3062 3062 3064 3065 3066 3067 3067 3066 3066 3066 3065 3077 3078 3081 3087 3092 3096
3109 3105 3100 3095 3091 3088 3084 3081 3078 3073 3070 3067 3063 3057 3048 3050 3055 3057 3058 3056 3052 3055 3057 3058 3058 3059 3058 3056 3056 3056 3055 3057 3057 3061 3059 3063 3053 3053 3064 3068 3069 3074 3079 3084 3089
3102 3097 3092 3087 3082 3077 3075 3073 3069 3063 3061 3058 3054 3047 3033 3038 3042 3043 3043 3042 3044 3044 3046 3050 3051 3051 3049 3050 3050 3051 3050 3048 3048 3053 3054 3058 3040 3052 3059 3059 3061 3065 3069 3075 3080
3093 3087 3084 3080 3075 3067 3063 3061 3059 3054 3052 3049 3045 3040 3031 3028 3029 3031 3031 3030 3032 3033 3037 3043 3044 3042 3042 3042 3044 3041 3039 3038 3042 3046 3048 3048 3039 3047 3052 3051 3053 3057 3061 3066 3071
3087 3079 3072 3067 3068 3058 3054 3051 3047 3042 3038 3037 3032 3029 3024 3022 3021 3022 3022 3023 3023 3022 3026 3029 3032 3031 3028 3031 3023 3035 3033 3033 3034 3039 3039 3038 3034 3041 3043 3044 3046 3050 3055 3058 3061
3079 3073 3062 3056 3055 3048 3040 3038 3038 3031 3024 3023 3020 3012 3013 3014 3011 3005 3007 3009 3010 3011 3007 3015 3021 3004 3011 3018 3024 3031 3029 3027 3030 3034 3034 3031 3029 3030 3035 3037 3039 3041 3047 3051 3055
3067 3066 3057 3048 3044 3038 3032 3026 3020 3017 3004 3006 3002 2999 3000 2997 2992 2991 2992 2995 2995 2992 3000 3008 2996 2995 3010 3015 3017 3021 3022 3020 3025 3027 3027 3024 3019 3022 3025 3025 3029 3033 3035 3042 3049
3057 3052 3045 3038 3037 3030 3024 3019 3011 3006 2999 2989 2985 2978 2982 2982 2976 2976 2980 2979 2980 2983 2984 2986 2983 2996 3000 3004 3008 3011 3015 3017 3021 3023 3021 3018 3010 3011 3012 3016 3018 3021 3027 3033 3038
3048 3042 3035 3026 3026 3019 3016 3010 3005 3000 2993 2981 2979 2974 2973 2969 2967 2966 2963 2968 2971 2971 2980 2983 2982 2986 2991 2995 3002 3002 3009 3013 3014 3016 3014 3015 3003 2999 3001 3003 3007 3012 3017 3022 3027
3039 3035 3027 3019 3015 3013 3011 3007 3002 3000 2995 2980 2977 2973 2970 2970 2964 2960 2960 2957 2958 2965 2971 2962 2970 2977 2983 2983 2995 2995 3005 3008 3011 3009 3010 3007 3007 2983 2992 2992 2997 3001 3007 3013 3020
3033 3028 3021 3018 3015 3010 3006 3004 3002 3000 2987 2977 2972 2967 2965 2964 2960 2956 2956 2955 2957 2961 2960 2960 2968 2972 2973 2980 2988 2994 2999 3002 3004 3005 2996 2996 3001 2974 2980 2983 2989 2993 2998 3004 3011
3025 3022 3017 3012 3009 3006 3003 3001 3001 2994 2984 2978 2971 2968 2968 2961 2958 2955 2951 2951 2954 2956 2954 2954 2955 2962 2968 2976 2981 2987 2992 2991 2996 2993 2982 2988 2991 2965 2975 2977 2979 2984 2988 2994 3000
3020 3017 3013 3009 3006 3003 3001 2999 2997 2990 2985 2981 2977 2970 2969 2961 2959 2953 2952 2951 2951 2952 2951 2950 2950 2951 2955 2962 2967 2974 2980 2981 2982 2981 2977 2982 2974 2961 2966 2972 2973 2975 2979 2983 2988
3016 3014 3010 3006 3004 3002 3000 2997 2993 2989 2987 2981 2974 2968 2966 2964 2963 2957 2956 2951 2946 2942 2944 2941 2942 2945 2948 2954 2962 2964 2968 2974 2978 2975 2975 2969 2964 2962 2962 2962 2961 2965 2970 2973 2976
3012 3009 3006 3003 3000 2997 2997 2995 2991 2988 2984 2981 2977 2973 2968 2963 2961 2956 2953 2947 2941 2941 2943 2937 2936 2936 2943 2948 2952 2955 2965 2973 2973 2969 2968 2961 2960 2958 2957 2957 2957 2958 2962 2966 2971
3009 3006 3003 3000 2997 2994 2991 2990 2987 2985 2983 2980 2976 2972 2967 2965 2962 2958 2954 2951 2947 2941 2942 2936 2932 2931 2936 2937 2940 2949 2951 2959 2962 2963 2960 2960 2955 2951 2952 2952 2953 2955 2957 2960 2965
3007 3005 3002 2998 2996 2992 2989 2987 2985 2982 2980 2978 2974 2972 2969 2965 2961 2958 2956 2955 2952 2948 2939 2937 2930 2926 2924 2931 2937 2941 2945 2949 2952 2954 2957 2961 2954 2947 2949 2952 2952 2953 2952 2951 2952
3003 3001 2999 2996 2992 2991 2987 2984 2982 2979 2978 2975 2973 2971 2969 2965 2963 2958 2954 2951 2947 2942 2942 2938 2938 2930 2921 2929 2933 2937 2939 2942 2947 2949 2948 2954 2947 2946 2947 2951 2951 2949 2948 2947 2944
3002 2996 2994 2990 2987 2986 2984 2981 2978 2976 2973 2972 2970 2967 2965 2962 2961 2957 2952 2947 2948 2945 2942 2942 2943 2944 2946 2944 2939 2935 2933 2936 2938 2940 2943 2939 2939 2941 2945 2946 2944 2945 2945 2944 2939
2999 2996 2993 2991 2985 2983 2982 2977 2975 2973 2971 2969 2966 2965 2963 2960 2956 2954 2952 2946 2945 2945 2944 2943 2940 2940 2940 2940 2935 2931 2929 2928 2929 2933 2936 2938 2937 2940 2944 2944 2942 2941 2943 2943 2939
2997 2993 2988 2986 2982 2979 2976 2974 2972 2970 2969 2966 2964 2961 2959 2958 2956 2950 2948 2946 2941 2942 2940 2938 2934 2932 2929 2933 2933 2926 2923 2922 2923 2925 2932 2932 2929 2935 2940 2938 2939 2940 2940 2941 2940
2990 2988 2984 2981 2977 2974 2972 2969 2968 2967 2964 2962 2960 2957 2954 2952 2949 2947 2944 2941 2938 2935 2935 2935 2935 2934 2927 2926 2922 2918 2918 2919 2920 2922 2925 2925 2925 2932 2933 2934 2936 2937 2938 2939 2940